Sioux Falls, SD

1:35 AM CDT on September 28, 2016 (GMT -0500)
Foss

Weather History for KFSD - March, 2013

Change the Weather History Date:

Saturday, March 30, 2013

  Actual Average Record
Temperature  
Mean Temperature 48 °F 39 °F  
Max Temperature 61 °F 50 °F 88 °F (1943)
Min Temperature 34 °F 28 °F -5 °F (1969)
Degree Days  
Heating Degree Days 17 26  
Month to date heating degree days 1121 969  
Since 1 July heating degree days 6740 6819  
Cooling Degree Days 0 0  
Month to date cooling degree days 0 0  
Year to date cooling degree days 0 0  
Moisture  
Dew Point 40 °F    
Average Humidity 73    
Maximum Humidity 100    
Minimum Humidity 46    
Precipitation  
Precipitation 0.00 in 0.09 in 1.39 in (1949)
Month to date precipitation 0.88 1.67  
Year to date precipitation 2.23 2.83  
Snow  
Snow 0.00 in 0.30 in 8.90 in (1949)
Month to date snowfall 1.5 8.2  
Since 1 July snowfall 27.0 39.7  
Snow Depth 0.00 in    
Sea Level Pressure  
Sea Level Pressure 29.95 in    
Wind  
Wind Speed 12 mph (NW)    
Max Wind Speed 23 mph    
Max Gust Speed 32 mph    
Visibility 7 miles    
Events Fog    
T = Trace of Precipitation, MM = Missing Value Source: NWS Daily Summary

Daily Weather History Graph

Daily Weather History Graph

Search for Another Location

Airport or City:

Trip Planner

Search our weather history database for the weather conditions in past years. The results will help you decide how hot, cold, wet, or windy it might be!

Date:

Astronomy

Mar. 30, 2013 Rise Set
Actual Time 7:11 AM CDT 7:51 PM CDT
Civil Twilight 6:42 AM CDT 8:20 PM CDT
Nautical Twilight 6:08 AM CDT 8:54 PM CDT
Astronomical Twilight 5:33 AM CDT 9:30 PM CDT
Moon No Moon Rise 9:00 AM CDT (3/30)
Length of Visible Light 13h 37m
Length of Day
12h 39m
Waning Gibbous, 86% of the Moon is Illuminated
Mar 30
Waning Gibbous
Apr 2
Last Quarter
Apr 10
New
Apr 18
First Quarter
Apr 25
Full

Hourly Weather History & Observations

Time (CDT) Temp. Windchill Dew Point Humidity Pressure Visibility Wind Dir Wind Speed Gust Speed Precip Events Conditions
12:56 AM 55.0 °F - 44.1 °F 67% 29.96 in 10.0 mi SW 13.8 mph 26.5 mph 0.00 in   Partly Cloudy
1:56 AM 53.1 °F - 45.0 °F 74% 29.93 in 10.0 mi SW 11.5 mph 20.7 mph N/A   Clear
2:56 AM 52.0 °F - 44.1 °F 74% 29.93 in 10.0 mi SSW 17.3 mph 25.3 mph N/A   Clear
3:56 AM 50.0 °F - 43.0 °F 77% 29.93 in 10.0 mi SSW 17.3 mph 27.6 mph N/A   Clear
4:56 AM 48.0 °F - 43.0 °F 83% 29.92 in 10.0 mi South 18.4 mph 26.5 mph N/A   Partly Cloudy
5:56 AM 46.0 °F 40.2 °F 42.1 °F 86% 29.92 in 10.0 mi SSW 12.7 mph - N/A   Partly Cloudy
6:31 AM 44.6 °F 42.2 °F 41.0 °F 87% 29.93 in 10.0 mi WSW 4.6 mph - N/A   Mostly Cloudy
6:56 AM 45.0 °F 41.2 °F 42.1 °F 90% 29.94 in 10.0 mi SW 6.9 mph - N/A   Overcast
7:56 AM 44.1 °F 40.8 °F 41.0 °F 89% 29.96 in 7.0 mi WSW 5.8 mph - N/A   Overcast
8:07 AM 44.6 °F 41.4 °F 41.0 °F 87% 29.94 in 6.0 mi SW 5.8 mph - N/A   Overcast
8:21 AM 44.6 °F 41.4 °F 42.8 °F 93% 29.94 in 6.0 mi WSW 5.8 mph - N/A   Overcast
8:26 AM 44.6 °F 42.2 °F 42.8 °F 93% 29.94 in 7.0 mi WSW 4.6 mph - N/A   Overcast
8:43 AM 44.6 °F 42.2 °F 42.8 °F 93% 29.94 in 7.0 mi West 4.6 mph - N/A   Overcast
8:56 AM 44.1 °F 39.5 °F 43.0 °F 96% 29.96 in 4.0 mi WNW 8.1 mph - N/A   Overcast
9:25 AM 44.6 °F 39.2 °F 41.0 °F 87% 29.95 in 3.0 mi NNW 10.4 mph 18.4 mph N/A   Mostly Cloudy
9:36 AM 46.4 °F 40.1 °F 41.0 °F 81% 29.95 in 3.0 mi NNW 15.0 mph - N/A   Scattered Clouds
9:56 AM 46.9 °F - 39.9 °F 77% 29.96 in 9.0 mi North 13.8 mph - N/A   Clear
10:56 AM 51.1 °F - 39.9 °F 66% 29.97 in 9.0 mi NNW 10.4 mph - N/A   Clear
11:56 AM 52.0 °F - 41.0 °F 66% 29.97 in 10.0 mi NNW 15.0 mph - N/A   Clear
12:56 PM 55.9 °F - 42.1 °F 60% 29.96 in 10.0 mi North 10.4 mph - N/A   Clear
1:56 PM 57.9 °F - 39.9 °F 51% 29.95 in 10.0 mi NNW 18.4 mph - N/A   Partly Cloudy
2:56 PM 60.1 °F - 39.0 °F 46% 29.94 in 10.0 mi NW 16.1 mph 24.2 mph N/A   Partly Cloudy
3:56 PM 60.1 °F - 39.9 °F 47% 29.93 in 10.0 mi NW 16.1 mph 24.2 mph N/A   Scattered Clouds
4:56 PM 60.1 °F - 41.0 °F 49% 29.92 in 10.0 mi NNW 17.3 mph - N/A   Scattered Clouds
5:56 PM 57.9 °F - 37.9 °F 47% 29.92 in 10.0 mi NNW 15.0 mph - N/A   Partly Cloudy
6:56 PM 54.0 °F - 41.0 °F 62% 29.94 in 10.0 mi North 13.8 mph - N/A   Partly Cloudy
7:56 PM 46.9 °F - 39.9 °F 77% 29.95 in 10.0 mi North 12.7 mph - N/A   Clear
8:56 PM 41.0 °F 38.0 °F 37.0 °F 86% 29.97 in 8.0 mi NNW 4.6 mph - N/A   Clear
9:56 PM 37.0 °F 34.5 °F 36.0 °F 96% 29.99 in 5.0 mi North 3.5 mph - N/A   Clear
10:19 PM 35.6 °F 29.9 °F 35.6 °F 100% 29.96 in 4.0 mi NNW 6.9 mph - N/A   Partly Cloudy
10:21 PM 35.6 °F 29.9 °F 35.6 °F 100% 29.96 in 1.5 mi NNW 6.9 mph - N/A   Mostly Cloudy
10:24 PM 35.6 °F 31.7 °F 35.6 °F 100% 29.96 in 0.5 mi NNW 4.6 mph - N/A Fog Fog
10:28 PM 37.4 °F 33.8 °F 35.6 °F 93% 29.96 in 0.2 mi NNW 4.6 mph - N/A Fog Fog
10:33 PM 37.4 °F 33.8 °F 37.4 °F 100% 29.96 in 0.2 mi North 4.6 mph - N/A Fog Fog
10:47 PM 37.4 °F 31.4 °F 37.4 °F 100% 29.96 in 0.2 mi NNW 8.1 mph - N/A Fog Fog
10:56 PM 37.0 °F 33.3 °F 37.0 °F 100% 29.99 in 0.2 mi North 4.6 mph - N/A Fog Fog
10:58 PM 37.4 °F 32.8 °F 37.4 °F 100% 29.96 in 0.2 mi North 5.8 mph - N/A Fog Fog
11:45 PM 35.6 °F 32.8 °F 35.6 °F 100% 29.94 in 0.2 mi North 3.5 mph - N/A Fog Fog
11:50 PM 35.6 °F 31.7 °F 35.6 °F 100% 29.94 in 0.2 mi North 4.6 mph - N/A Fog Fog
11:56 PM 36.0 °F 32.1 °F 35.1 °F 97% 29.97 in 0.2 mi North 4.6 mph - N/A Fog Fog